GFSNGP_sfc_rhum_189.txt.gz
RH
59 47 52 67 67 58 59 57 70 55 52 40 46 45 48 48 44 36 63 73 78 86 88 91 94 94 91 89 83 84 87 89 91 91 87 89 91 90 89 87 84 78 78 84
82 54 54 68 52 47 48 47 45 42 45 39 47 50 57 59 61 74 75 81 81 80 81 81 82 91 90 94 96 94 85 89 88 90 88 89 94 93 90 88 86 85 89 85
98 65 70 92 69 53 48 42 48 66 50 56 58 55 60 55 48 52 52 57 57 59 68 81 84 91 93 93 95 97 99 97 95 91 93 94 93 92 93 92 88 89 90 87
99 82 98 58 45 46 51 48 54 56 60 56 59 59 55 53 53 53 51 52 62 59 60 73 89 93 94 93 93 95 96 99 98 96 97 96 95 96 94 93 98 96 91 94
99 91 64 54 51 58 55 75 59 58 57 51 46 50 63 51 49 53 50 55 56 58 60 62 67 74 85 90 86 89 94 94 100 97 98 97 99 100 99 96 99 100 100 99
99 98 91 77 49 45 46 90 56 53 54 52 50 75 75 51 52 52 50 52 68 62 58 57 64 65 72 74 83 89 90 92 96 100 100 100 99 100 100 100 100 100 100 100
98 98 91 49 44 43 72 81 60 49 49 48 54 57 48 50 51 52 53 49 47 50 64 62 57 57 63 74 79 88 87 99 99 96 97 98 99 100 100 100 100 100 100 100
95 98 94 47 46 60 66 62 46 40 40 46 49 55 58 57 50 46 44 42 40 46 47 58 57 53 52 60 77 84 88 98 100 100 96 97 98 100 100 100 100 100 100 100
76 83 57 40 42 35 34 36 34 35 38 40 50 54 59 59 57 52 44 36 33 34 38 42 44 43 52 68 82 86 88 95 100 99 99 98 98 100 99 98 98 100 99 100
53 62 50 40 29 27 27 34 30 30 35 41 52 68 66 59 57 49 40 40 37 37 38 46 48 42 46 58 81 92 100 100 99 100 99 99 98 97 96 98 99 98 98 98
58 46 40 33 29 32 33 30 32 34 41 41 46 53 55 62 62 61 56 56 56 53 47 40 36 45 46 53 80 90 100 100 99 99 99 98 98 97 96 92 92 97 98 98
79 48 51 45 36 36 31 32 36 38 42 53 52 62 71 74 74 69 68 64 66 64 58 51 44 38 41 56 88 92 98 100 99 99 99 98 98 99 100 97 96 94 94 95
44 40 40 39 28 27 33 33 34 41 50 53 55 59 64 66 65 68 62 62 64 66 66 66 64 64 57 68 88 94 95 98 100 100 100 99 99 98 100 100 98 96 95 95
38 40 39 36 36 32 33 36 48 48 52 60 65 65 68 69 65 66 66 65 63 64 66 66 71 79 82 77 85 92 98 98 98 98 98 98 98 98 98 98 98 99 97 96
39 36 36 34 30 30 38 55 66 71 72 74 71 73 73 73 73 69 66 67 69 71 71 72 78 81 85 87 91 89 96 95 98 98 99 98 98 98 98 97 96 97 98 98
37 35 32 35 35 45 59 68 76 80 80 80 75 72 69 75 80 76 73 71 80 86 82 84 85 82 84 90 93 94 97 96 98 98 98 98 98 98 98 98 98 98 97 97
43 44 42 45 68 71 71 75 76 78 80 75 73 79 89 78 80 78 76 78 80 81 82 88 90 86 87 87 92 92 95 95 96 98 98 98 97 98 97 98 98 97 97 97
43 70 72 75 75 78 81 80 79 81 87 86 93 82 85 84 83 85 84 80 84 81 80 79 81 85 93 90 86 87 94 97 98 98 98 98 98 98 98 98 98 98 98 98
63 68 71 73 79 83 87 88 81 78 94 93 92 96 91 80 82 90 89 88 83 84 83 90 91 93 96 96 94 91 92 98 98 98 98 98 98 99 99 98 98 98 98 97
70 75 78 82 85 86 85 89 98 98 97 98 98 98 84 80 78 85 89 90 83 83 85 89 97 96 96 97 98 97 97 98 98 98 98 98 98 99 99 99 98 98 98 97
88 88 92 98 98 97 97 93 95 96 92 92 98 96 89 83 87 91 93 90 79 81 96 95 96 97 96 94 98 98 98 98 98 98 98 98 99 99 99 99 99 97 96 96
95 98 98 97 95 95 97 97 99 98 98 100 83 82 89 91 94 93 88 91 85 94 96 94 97 97 98 100 99 99 98 98 98 98 98 99 99 99 99 99 98 97 96 95
92 94 93 99 99 97 93 94 96 99 99 95 93 91 93 96 98 98 94 86 88 95 94 97 98 98 99 100 100 99 99 98 98 98 99 99 100 99 99 98 99 97 96 95
94 93 92 94 96 97 94 88 90 88 93 91 91 91 99 98 93 90 85 86 85 96 97 97 98 99 99 100 100 100 99 99 99 99 99 100 99 98 98 98 98 98 95 95
91 92 88 86 88 91 86 76 81 88 88 91 91 91 93 97 99 97 96 96 93 95 97 97 98 99 99 100 100 100 100 100 99 99 100 98 96 96 96 96 95 97 96 94
88 92 91 87 89 88 87 90 93 93 94 92 89 88 95 95 92 88 89 89 93 95 98 98 98 98 99 99 99 99 99 99 99 99 99 98 96 96 95 95 96 96 96 95
86 90 86 78 93 92 93 94 96 96 92 93 90 78 95 95 90 89 91 87 89 97 96 98 98 99 99 99 99 99 99 99 99 99 99 99 99 98 97 96 96 96 95 95

GFSNGP_sfc_rhum_195.txt.gz
RH
71 73 71 72 64 58 64 58 71 64 54 48 61 63 74 91 90 83 78 73 76 87 94 84 84 85 85 87 90 93 95 97 98 96 95 95 96 96 94 94 92 92 93 95
86 69 72 82 74 62 57 56 64 60 61 56 63 63 70 77 78 75 64 55 54 60 68 71 75 80 83 87 89 90 97 97 96 97 97 97 97 96 96 95 95 96 97 96
97 81 92 99 90 74 70 62 61 81 64 59 65 61 65 64 64 63 54 48 45 47 51 57 65 77 74 82 89 91 92 92 97 96 97 97 96 97 98 98 97 97 97 96
100 100 99 81 65 62 70 66 76 74 63 55 59 62 54 51 52 54 54 51 48 47 45 48 57 59 68 72 79 86 91 93 93 98 98 97 98 98 97 97 98 98 97 97
99 98 99 89 77 74 79 90 81 79 65 62 63 59 61 54 52 52 51 56 55 56 57 56 55 55 59 66 73 79 80 81 87 92 97 98 99 100 98 98 99 100 100 100
100 98 95 80 60 54 65 96 81 76 72 77 71 87 80 60 56 53 53 57 70 57 52 52 51 51 60 62 67 66 69 75 79 87 97 100 97 98 100 98 100 99 100 100
99 98 91 65 57 51 89 77 70 65 62 72 77 65 65 62 63 60 62 58 54 58 66 57 54 57 59 65 65 69 70 76 79 84 89 94 99 99 100 100 100 100 100 100
99 99 94 60 56 63 65 70 62 58 55 63 54 63 70 59 54 51 47 45 46 50 55 61 62 66 66 66 64 66 71 74 76 84 94 95 98 99 100 100 100 100 100 100
85 85 66 54 62 62 63 59 59 54 54 55 62 57 59 56 51 49 49 53 53 54 62 66 62 59 68 71 68 71 75 78 82 84 93 99 98 98 98 99 99 100 100 100
75 66 53 52 52 50 53 44 42 44 47 48 58 70 68 59 64 65 62 66 61 70 72 76 73 72 73 75 74 77 81 79 80 88 87 96 98 98 99 98 99 99 99 99
69 62 46 40 38 38 36 39 38 40 42 45 48 56 61 68 70 71 74 72 72 75 79 78 76 79 79 79 85 88 88 87 84 90 95 97 97 95 97 94 96 98 98 98
79 62 60 42 40 42 44 40 39 42 44 45 49 59 67 73 74 76 76 75 75 76 78 77 76 77 78 78 84 90 93 90 90 92 95 92 94 94 91 96 99 97 93 92
52 51 45 44 40 39 40 41 42 40 42 57 61 67 69 75 76 77 75 76 79 80 80 83 86 89 86 87 90 92 92 91 92 93 94 95 92 93 96 98 99 99 98 98
46 44 46 45 41 40 36 40 56 58 62 69 74 74 78 80 77 79 83 84 84 86 86 84 82 82 81 75 77 82 84 89 94 88 93 94 94 89 91 94 97 99 100 98
38 35 38 37 34 37 59 70 73 75 78 79 78 83 82 84 89 91 87 85 83 83 80 80 78 78 75 77 78 83 80 80 83 87 86 88 95 95 90 91 92 92 100 100
43 41 42 41 39 47 67 72 72 82 83 86 87 86 87 86 87 86 81 80 88 89 83 82 80 76 72 77 80 84 84 85 89 90 85 80 86 96 96 94 89 95 98 98
51 52 55 53 51 69 74 71 70 77 86 86 86 89 87 85 86 87 82 82 83 83 80 79 82 77 77 80 83 88 92 93 95 92 91 86 90 89 95 96 92 96 98 98
49 50 52 50 64 78 83 82 84 86 90 86 90 90 90 93 91 88 86 89 92 90 82 76 77 77 77 78 83 96 96 95 94 94 91 89 91 94 94 97 97 95 98 99
55 52 57 57 76 79 84 89 89 87 91 93 95 98 95 97 95 91 89 91 90 84 80 75 76 78 77 79 87 94 97 97 96 96 95 97 96 98 98 98 98 98 98 98
68 75 82 88 88 86 90 93 92 95 97 93 94 93 98 98 94 91 91 90 81 78 78 74 74 77 80 80 90 97 97 98 98 98 98 98 98 99 99 98 98 99 100 98
88 91 91 91 94 93 92 94 96 96 93 90 92 98 96 91 94 95 94 93 83 87 78 79 82 84 84 89 95 98 98 98 98 98 99 99 99 99 98 99 99 99 99 98
93 94 98 97 97 98 97 95 95 98 98 93 96 100 99 91 95 97 95 94 92 91 91 83 87 85 86 91 97 98 97 98 98 99 99 99 99 99 99 99 99 99 98 99
96 95 96 97 97 96 97 98 96 95 97 96 98 99 98 96 99 99 94 90 91 93 91 92 90 91 88 94 98 98 98 98 99 99 99 99 99 99 99 99 99 98 98 98
95 94 93 91 93 95 97 96 97 98 99 99 99 95 92 98 94 92 83 93 93 94 94 95 91 86 89 97 98 98 98 99 99 99 99 100 100 100 100 99 98 98 98 98
93 93 92 95 97 95 91 91 90 94 96 95 92 91 92 98 98 96 92 95 95 95 95 94 91 88 94 97 98 98 98 98 99 99 100 100 100 100 100 99 99 98 98 98
94 96 95 92 93 94 94 95 96 97 96 97 97 98 96 96 94 93 96 96 97 95 96 96 96 96 96 97 98 99 99 99 99 99 100 100 99 99 99 99 99 99 99 99
94 96 96 96 94 94 96 94 95 96 96 95 95 96 96 97 97 98 96 98 98 98 97 97 96 97 97 97 98 98 98 99 99 99 99 99 99 99 99 99 99 99 99 98

GFSNGP_sfc_rhum_201.txt.gz
RH
33 55 45 44 49 48 46 44 60 42 41 34 37 47 52 60 75 81 92 91 89 92 93 92 93 92 91 91 88 85 86 88 89 88 88 87 90 89 88 90 87 87 89 90
55 45 56 68 52 42 50 46 45 42 44 38 49 52 68 72 73 75 83 85 80 76 73 73 73 71 70 69 70 66 66 72 78 80 82 87 88 90 90 90 90 90 93 92
87 65 82 99 74 56 55 45 51 66 49 48 54 55 62 72 69 71 72 68 61 55 53 51 48 51 50 55 58 57 55 52 51 56 60 75 78 79 84 90 89 96 96 96
96 100 98 58 49 50 57 55 54 54 50 47 43 50 56 60 64 64 58 52 48 44 46 48 44 43 46 45 50 53 51 52 55 61 64 64 74 86 90 90 94 97 93 97
98 90 68 66 65 70 69 65 55 55 51 50 54 59 64 65 60 57 52 52 48 46 46 46 43 48 51 50 50 50 55 56 60 65 65 61 72 99 89 86 88 98 100 99
100 99 98 64 55 55 56 80 49 55 57 61 58 75 65 62 57 54 49 53 80 73 74 68 64 52 50 50 53 54 60 60 60 72 74 98 72 74 92 91 95 95 97 100
98 99 95 60 58 58 90 70 61 57 55 62 65 55 62 67 64 64 72 81 85 85 84 71 62 58 56 59 62 74 70 79 74 69 70 70 80 78 79 94 98 100 100 100
99 99 96 58 69 71 65 60 69 64 62 64 62 74 70 64 67 79 88 88 79 76 72 67 59 55 57 57 64 66 74 74 75 77 75 69 74 78 87 98 100 100 100 100
82 81 65 59 59 58 55 56 66 70 64 61 74 85 78 74 78 79 71 61 52 47 48 54 56 56 63 69 68 72 70 73 78 79 74 75 83 86 87 84 90 96 99 100
83 69 62 60 52 52 52 52 56 66 64 65 80 96 93 80 71 56 42 39 40 46 55 58 59 61 64 65 67 70 75 77 78 80 80 80 77 82 85 88 91 89 92 91
78 58 50 49 52 53 47 51 55 60 61 61 64 63 65 60 51 41 41 49 48 54 56 59 61 60 57 60 65 71 73 79 82 84 84 85 82 81 83 83 85 88 88 89
78 66 63 54 49 47 50 53 53 52 50 55 51 50 46 48 47 47 54 59 58 60 60 60 61 62 62 64 68 74 80 77 75 78 81 84 84 85 81 88 89 84 87 94
66 60 61 54 53 45 45 47 46 46 40 46 44 43 42 51 56 71 61 62 61 61 64 65 68 71 69 76 85 95 85 81 80 79 79 80 84 84 89 88 85 86 88 85
47 46 44 42 44 41 42 43 47 39 39 39 42 45 55 57 66 63 63 61 65 67 72 71 71 73 72 70 71 75 74 76 74 77 79 83 83 84 82 85 89 88 83 90
40 38 40 41 40 44 46 43 46 47 48 54 55 61 60 62 65 65 68 68 69 70 69 70 70 70 69 72 73 78 73 74 76 85 86 85 85 85 84 85 84 83 83 86
41 40 39 42 39 45 44 43 44 52 59 70 65 66 67 66 68 70 68 69 72 74 67 80 74 71 75 76 74 75 77 81 86 87 86 86 85 88 88 87 89 89 86 83
43 41 43 42 46 51 47 42 40 48 61 62 66 72 70 71 71 70 70 72 72 74 71 74 86 88 90 78 71 77 87 88 88 90 89 88 91 92 87 90 92 90 88 89
46 44 47 45 50 51 58 63 62 66 70 70 84 88 90 88 82 81 81 82 88 89 79 75 84 85 80 72 75 82 87 87 87 89 90 94 94 92 94 96 90 88 87 89
52 52 51 49 50 51 58 70 73 73 86 88 89 90 90 91 92 91 91 91 89 86 88 77 82 76 71 72 80 82 86 88 88 88 93 94 97 97 96 97 92 93 91 93
55 56 56 54 57 63 65 86 87 89 90 90 92 93 94 98 98 98 92 85 80 76 82 85 80 66 67 69 83 86 88 90 91 92 95 97 98 99 98 95 94 94 98 97
67 67 75 77 83 92 90 92 90 91 93 90 89 93 93 95 96 93 90 83 92 89 82 86 74 67 65 76 84 90 92 95 96 97 98 98 99 98 96 99 98 100 99 100
84 87 91 90 92 92 94 92 89 93 93 94 96 96 97 92 94 92 92 94 88 80 80 78 69 77 82 86 86 92 86 91 94 96 98 98 99 99 100 100 100 100 100 100
84 88 89 95 93 87 89 89 95 94 92 91 94 96 91 78 78 88 91 91 88 83 83 84 86 92 92 88 91 88 92 91 96 96 98 99 99 100 100 100 100 100 100 100
89 88 88 86 85 83 84 86 84 88 92 91 92 93 89 94 94 84 78 84 85 93 97 98 96 93 93 95 91 92 92 93 94 100 99 97 98 100 100 100 100 100 100 100
84 84 84 86 83 81 78 83 89 89 91 90 89 90 92 82 91 84 88 85 87 86 97 94 92 94 100 100 95 92 94 96 100 100 100 100 100 100 100 100 100 100 100 100
84 82 80 78 76 75 77 82 85 91 94 96 96 98 98 90 85 82 86 88 86 88 94 100 100 100 100 98 98 98 96 97 100 100 100 100 100 100 100 100 100 100 100 100
82 90 82 82 79 78 80 80 87 90 92 94 92 93 91 90 91 87 90 95 96 98 100 100 100 98 98 100 99 99 100 100 96 99 99 100 100 100 100 100 100 100 100 100

GFSNGP_sfc_rhum_204.txt.gz
RH
21 13 18 26 30 25 27 33 47 31 20 16 16 20 21 24 28 37 46 51 54 72 78 75 77 75 72 76 75 71 72 69 74 73 71 73 76 74 72 75 73 76 78 79
43 20 20 27 25 25 24 25 24 22 22 16 16 24 31 34 36 43 50 53 61 75 81 86 86 82 77 74 68 62 60 60 58 59 62 67 72 73 71 71 70 77 79 83
75 36 36 88 51 29 28 24 26 38 27 20 20 23 34 33 38 42 46 55 63 69 71 70 66 60 58 51 47 42 43 40 41 40 39 45 42 45 49 56 65 72 74 74
96 86 98 45 22 22 26 27 28 27 25 22 22 25 28 30 34 43 48 56 59 58 57 50 44 39 40 34 36 37 36 35 39 42 46 47 52 52 56 58 64 72 71 70
99 94 52 38 36 37 40 40 31 31 28 27 28 30 33 30 34 42 52 58 57 50 44 38 32 32 35 36 38 42 52 63 64 58 46 42 45 67 59 58 61 68 99 95
100 100 95 49 29 27 32 61 33 32 37 38 37 57 49 44 46 49 55 52 57 44 42 43 44 39 46 52 55 51 49 49 47 52 52 80 59 62 77 75 68 79 83 100
96 99 58 28 30 39 69 53 31 34 35 39 47 43 37 50 54 52 53 46 44 46 50 45 54 56 63 62 53 54 54 62 60 56 59 62 72 72 71 77 77 95 99 100
99 100 91 31 43 52 44 38 41 37 39 43 44 53 57 56 52 47 43 45 47 57 76 81 67 56 49 44 50 52 57 58 55 60 59 53 59 63 68 74 100 100 100 100
61 63 40 36 38 39 36 41 41 41 39 47 51 60 61 58 51 44 48 56 64 73 76 64 50 44 48 48 44 54 51 52 56 63 59 57 68 70 72 70 75 80 92 100
69 53 41 42 37 41 42 41 36 39 42 49 67 90 76 56 50 53 58 75 63 52 44 42 42 43 41 46 50 53 55 59 61 64 66 66 64 70 75 77 79 76 75 76
62 44 48 47 42 42 42 39 38 43 46 47 52 58 53 56 56 60 60 48 44 39 36 41 40 40 41 44 46 49 52 56 62 62 65 66 64 69 74 72 77 78 77 79
67 45 52 42 42 41 43 40 38 45 52 50 47 53 54 57 56 49 41 34 30 36 37 41 40 43 43 44 46 52 59 61 64 67 67 65 66 68 77 86 86 85 86 87
50 50 45 51 41 36 40 39 41 44 43 51 48 48 50 53 44 45 35 38 39 40 42 43 45 48 48 58 72 82 70 70 72 76 74 74 74 75 83 88 86 85 85 85
43 44 52 47 47 44 45 41 49 42 42 44 42 41 42 37 40 36 38 38 40 46 49 48 51 55 57 58 58 63 65 81 65 65 67 69 70 81 83 84 85 88 85 87
37 38 36 33 33 33 35 39 43 41 41 41 36 38 37 37 38 39 43 46 46 48 51 54 55 57 57 59 60 64 64 66 67 72 78 82 80 80 78 78 84 82 82 85
34 33 32 34 32 36 37 40 42 39 43 48 40 37 36 34 41 47 48 50 57 60 52 86 62 59 63 64 65 67 67 79 81 75 81 82 77 78 78 81 86 87 85 83
37 38 37 36 34 36 35 33 35 35 43 42 43 47 47 50 53 55 54 59 61 65 61 61 79 68 80 72 64 68 75 77 82 81 81 76 78 80 81 87 88 86 87 89
33 36 38 40 39 40 38 37 38 43 56 50 67 82 94 89 68 67 68 71 95 100 66 59 65 73 69 64 63 68 76 78 79 79 84 89 87 80 86 88 89 90 90 92
34 32 34 35 36 38 40 45 50 50 80 98 98 100 100 100 100 100 100 100 100 93 90 65 78 75 58 61 71 68 73 77 83 85 86 87 93 89 93 96 96 98 97 93
40 40 42 41 44 50 46 88 91 92 99 100 100 100 100 100 100 100 100 94 69 63 69 68 69 63 57 59 72 68 77 87 86 83 93 91 97 100 96 96 98 99 100 100
60 56 77 88 100 100 100 100 100 100 100 100 99 98 99 100 100 99 98 77 98 84 70 78 64 59 54 66 67 82 84 87 94 92 92 97 100 99 99 100 100 100 100 100
75 87 100 100 100 96 100 95 82 100 100 100 98 97 99 97 94 95 100 93 84 86 71 64 60 69 66 86 72 90 88 90 91 92 96 99 100 100 98 100 100 100 100 100
72 80 85 97 93 74 77 80 100 94 98 96 97 98 86 70 65 75 82 91 82 78 66 70 74 82 88 97 95 91 97 93 96 96 100 100 100 100 100 100 100 100 100 100
74 74 77 74 72 70 72 74 72 77 96 90 100 100 73 76 85 58 64 83 83 92 96 98 97 91 92 100 100 96 95 100 99 100 99 98 100 100 100 100 100 100 100 100
72 71 71 73 69 67 66 68 70 76 80 77 81 84 70 60 89 77 82 81 92 77 90 93 89 91 100 100 100 100 100 100 100 100 100 100 100 100 100 100 100 100 100 100
67 65 63 63 64 61 61 66 67 72 76 89 88 94 95 83 78 76 85 81 76 74 84 100 100 100 100 100 100 100 100 97 100 100 99 100 100 100 100 100 100 100 100 100
71 85 68 67 64 64 64 64 75 80 86 94 89 92 95 97 96 81 84 95 95 98 100 100 100 95 94 100 100 100 100 100 98 98 100 100 100 100 100 100 100 100 100 100

GFSNGP_sfc_rhum_207.txt.gz
RH
25 16 18 24 22 18 20 22 34 27 18 12 11 20 20 19 18 19 20 25 30 32 38 43 48 50 52 60 59 56 57 62 70 68 66 67 68 68 70 72 67 64 66 66
38 27 15 17 19 20 17 16 16 15 17 13 12 9 12 15 16 20 22 25 30 34 40 54 63 62 71 73 70 64 62 65 64 62 60 62 62 60 60 61 58 59 60 60
66 32 35 46 21 13 19 18 18 28 19 15 14 14 13 20 22 24 23 24 32 38 62 72 76 72 73 68 64 60 58 53 50 47 46 48 42 42 43 48 50 58 60 60
81 53 89 40 17 14 16 18 18 16 16 15 15 16 15 15 16 22 23 27 32 43 69 75 72 67 64 56 50 47 41 36 34 36 38 39 44 46 53 54 60 57 55 54
96 76 38 30 24 22 25 24 18 17 18 16 15 19 20 18 18 20 26 34 41 50 67 68 63 54 46 41 38 37 40 41 48 54 54 51 56 63 52 51 50 53 69 71
100 97 88 36 22 18 21 41 19 17 21 20 22 39 32 26 26 27 30 44 61 54 56 52 44 36 36 43 47 46 57 58 52 58 52 82 56 55 62 62 57 58 56 71
82 94 45 21 19 19 53 48 30 27 27 30 35 27 27 33 36 38 46 51 53 50 48 37 35 36 54 64 62 77 76 73 65 58 54 52 62 60 58 61 61 76 85 95
76 96 83 19 18 30 34 30 26 26 30 38 34 34 46 40 42 45 51 48 42 39 41 41 42 49 57 60 72 73 74 69 59 55 52 45 54 54 56 63 92 100 100 100
54 62 33 26 28 24 27 29 26 28 30 32 33 41 47 46 46 48 45 40 34 36 43 56 53 53 60 70 65 63 54 49 50 53 49 48 61 68 72 66 73 76 86 90
60 45 34 32 30 27 26 30 26 25 30 33 49 70 58 49 46 44 39 38 33 48 61 61 55 52 53 51 47 46 47 50 53 58 60 57 58 64 71 75 77 75 77 76
59 45 35 31 30 29 32 30 31 30 31 34 42 50 48 46 44 39 35 37 51 61 57 54 48 44 40 37 36 40 43 47 53 57 60 63 59 62 65 64 71 76 76 78
62 39 40 36 34 34 35 36 34 32 37 35 38 43 41 44 41 40 43 49 48 55 54 56 46 43 37 35 38 42 49 55 61 64 66 63 64 65 77 79 82 83 84 84
51 50 44 43 35 32 35 35 33 34 34 38 37 37 40 45 47 56 49 47 46 47 46 41 35 37 40 55 67 80 64 66 69 73 72 73 72 72 76 84 87 86 87 87
47 46 52 46 42 38 35 34 41 33 35 38 39 42 46 48 48 42 39 40 42 40 39 36 40 47 47 51 51 57 60 79 62 64 65 66 60 65 68 74 84 85 82 86
43 40 41 36 34 34 36 39 43 44 42 42 41 46 49 48 44 40 40 37 35 38 39 44 47 53 52 54 53 59 61 62 63 67 69 71 68 70 71 79 83 81 78 83
33 36 35 36 33 32 33 36 41 41 43 44 44 42 40 37 37 35 37 38 46 53 46 79 62 59 63 58 59 65 65 79 78 67 69 71 75 77 76 81 83 84 80 80
38 41 36 34 34 35 34 35 36 38 44 41 40 37 31 33 40 42 45 52 60 64 66 65 69 70 68 65 60 63 65 68 80 71 72 74 79 83 75 79 86 86 79 83
29 31 33 34 34 35 36 38 39 41 52 42 61 71 89 78 61 64 69 72 88 98 64 58 58 74 66 61 59 60 61 64 68 74 75 81 82 74 79 82 81 80 77 86
27 27 28 29 32 35 39 44 47 60 87 98 98 100 100 100 100 100 100 100 100 90 80 60 83 66 54 60 64 58 62 66 71 77 83 84 90 83 86 89 89 91 89 90
32 32 36 34 43 52 48 81 79 87 99 100 100 100 100 100 100 100 100 92 66 61 66 63 65 60 56 57 75 56 64 73 78 85 90 90 92 94 94 92 94 97 98 96
61 68 84 93 100 100 100 100 100 100 100 100 100 100 100 100 100 100 99 77 86 76 64 79 62 55 50 56 56 66 74 87 93 92 94 94 97 96 96 99 100 96 98 99
66 84 100 100 100 93 100 91 74 100 100 100 100 100 100 98 100 100 100 93 81 85 70 64 61 70 60 79 58 84 86 90 91 92 94 96 98 100 100 100 100 98 97 96
68 73 78 100 92 67 66 72 100 93 100 100 100 99 90 75 71 77 79 85 78 82 70 70 75 75 80 92 93 100 98 95 95 94 96 98 99 100 100 100 100 100 100 98
66 66 72 70 66 64 64 63 66 73 96 88 100 100 69 75 84 57 59 78 88 93 96 98 95 84 87 99 100 100 100 99 98 99 95 93 100 100 100 100 100 100 100 100
63 62 62 65 61 60 59 61 63 68 70 66 71 73 63 61 84 67 77 83 98 78 89 90 86 86 100 100 100 100 100 100 100 99 100 100 100 100 100 100 100 100 100 100
70 68 59 54 58 58 67 64 63 65 66 81 81 94 94 74 71 71 85 85 76 72 85 100 100 100 99 97 100 100 100 96 100 100 100 100 100 100 100 100 100 100 100 100
61 80 79 76 66 77 73 75 86 88 78 86 86 89 92 97 96 82 91 96 92 98 100 100 99 93 95 100 100 100 100 100 98 97 100 100 100 100 100 100 100 100 100 100

GFSNGP_sfc_rhum_210.txt.gz
RH
30 25 22 20 21 20 22 22 33 28 21 16 14 17 21 20 21 19 23 26 28 31 45 48 53 73 74 79 70 64 65 68 75 77 76 77 80 81 83 81 80 79 81 80
43 27 25 24 18 19 20 20 19 19 21 16 16 14 16 19 20 19 20 22 22 30 33 47 51 60 63 68 67 64 64 74 75 76 76 80 80 81 82 82 78 75 78 75
75 37 33 43 30 20 21 18 20 26 20 16 17 16 15 15 18 20 21 23 25 30 37 50 53 60 67 70 73 74 76 74 74 70 68 72 68 68 71 72 73 74 72 74
90 56 74 38 21 20 22 19 18 17 15 15 15 15 19 18 19 27 24 25 27 30 53 67 67 73 78 75 76 78 74 67 63 63 60 61 64 64 68 66 70 74 71 70
99 80 49 35 28 28 28 27 21 20 17 15 13 17 21 16 18 26 30 36 40 48 64 73 74 78 79 80 74 65 58 57 61 66 65 64 66 72 76 70 67 69 76 80
100 94 83 49 28 22 24 43 20 18 20 20 19 31 24 29 33 41 43 48 66 69 74 77 78 75 73 64 57 57 63 70 69 71 70 87 78 77 83 75 70 76 73 78
96 96 56 29 27 19 46 42 25 19 20 28 35 30 36 46 44 50 66 66 64 73 77 76 63 52 55 62 70 79 75 77 75 73 80 84 87 85 85 85 82 85 91 96
93 99 85 27 23 32 32 29 28 23 24 30 46 49 58 46 48 57 62 63 63 71 72 61 50 48 56 68 75 73 80 82 84 88 85 84 90 86 81 82 90 100 100 100
72 74 42 29 27 23 26 38 32 34 30 36 44 45 53 54 53 56 59 57 51 46 47 46 48 54 63 74 72 78 80 82 85 86 80 68 75 78 92 85 93 95 100 100
65 42 36 32 27 24 23 33 27 27 28 38 53 71 65 53 54 56 50 48 41 45 48 55 58 56 70 68 71 74 76 74 75 80 79 77 76 84 91 96 97 98 97 97
67 46 37 33 30 30 30 30 28 27 27 31 37 50 51 50 50 48 45 42 40 46 61 60 55 59 57 57 54 56 58 63 70 76 77 83 80 83 87 84 88 95 96 96
79 46 53 51 44 36 35 33 31 31 34 33 32 46 46 47 46 44 45 41 50 60 63 60 53 52 48 48 49 54 65 73 80 83 83 82 84 91 82 80 82 82 83 88
68 57 52 46 53 45 34 33 33 34 32 37 37 41 42 46 46 53 41 50 61 57 54 50 51 51 54 74 78 78 77 82 93 91 94 94 94 94 94 93 86 86 86 86
50 50 54 48 48 38 36 37 42 33 34 38 38 37 44 46 47 44 53 51 50 55 57 52 52 60 68 69 66 77 76 82 79 83 89 94 92 93 93 92 90 89 88 90
55 51 62 54 47 44 40 40 42 42 40 41 42 50 52 53 54 54 50 46 46 49 51 56 65 71 67 68 63 72 75 86 90 93 93 90 89 89 89 88 85 84 83 86
61 64 67 65 60 55 42 43 46 49 50 55 52 55 58 48 46 49 56 61 71 76 65 77 82 76 79 69 72 82 83 83 83 87 89 88 88 88 85 82 82 82 78 80
69 69 55 50 45 41 38 40 40 46 55 55 57 57 53 57 64 70 72 70 69 76 78 77 84 85 82 76 73 83 93 91 82 86 86 86 88 82 81 80 83 79 76 80
40 46 43 44 46 49 50 56 55 60 64 60 75 78 80 73 67 70 83 83 86 89 82 80 84 84 80 78 74 84 85 84 86 87 87 87 82 80 83 85 84 86 85 86
33 37 39 39 47 51 57 65 74 82 90 92 91 94 93 94 91 99 94 93 91 85 84 78 86 81 77 78 74 81 82 84 85 86 84 81 88 84 82 81 83 89 88 89
55 60 61 68 76 79 79 93 87 98 100 100 100 100 100 100 100 100 91 86 78 81 77 80 73 75 74 78 80 74 82 85 81 84 82 84 82 93 93 90 91 93 94 94
76 86 95 99 100 100 100 100 100 100 100 100 100 100 100 100 100 100 97 85 94 81 78 83 77 78 72 74 73 89 90 92 90 83 83 91 95 93 92 93 93 93 94 94
81 91 100 100 99 98 100 90 88 100 100 100 100 100 100 99 100 99 99 95 88 86 82 80 80 79 79 77 75 94 90 81 85 94 94 95 94 94 94 93 94 94 94 96
80 81 88 100 90 79 78 94 100 97 100 100 99 96 96 90 89 90 91 97 85 84 82 88 85 82 82 94 97 99 98 96 95 95 94 95 94 95 96 94 94 95 94 93
77 78 81 79 75 72 74 79 73 86 98 97 97 100 90 88 89 82 83 90 88 88 99 90 85 84 88 99 98 95 97 100 98 97 95 93 96 96 95 95 94 93 92 91
77 80 79 76 67 71 65 66 71 74 76 80 84 93 92 81 95 87 89 91 91 85 99 97 89 88 97 93 90 92 94 95 97 99 99 98 95 95 95 94 93 93 93 92
64 73 74 91 94 92 92 79 78 81 75 91 89 92 100 96 90 90 92 93 86 87 96 96 99 99 97 87 89 89 92 96 98 99 100 97 96 95 94 93 92 93 93 93
60 72 70 78 84 83 91 96 97 98 95 97 94 95 96 100 100 93 94 94 93 92 98 94 91 88 89 90 89 94 99 99 100 100 100 99 99 98 96 95 94 94 94 94